Location: Chrome
(40.5765°N, 74.2163°W)
Time: 10:23:49
(UTC+00:00)

COBE Rocket - Pass Details

Date: 06 December 2019
Orbit: 681 x 781 km, 97.1° (Epoch: 26 January)

Event Time Altitude Azimuth Distance (km) Brightness Sun altitude
Rises 22:30:29 0° 10° (N) 3,051 6.8 -11.3°
Reaches altitude 10° 22:32:43 10° 9° (N) 2,130 6.0 -11.7°
Maximum altitude 22:37:22 79° 283° (WNW) 701 3.9 -12.5°
Drops below altitude 10° 22:42:01 10° 197° (SSW) 2,134 6.8 -13.4°
Sets 22:44:16 0° 196° (SSW) 3,056 7.6 -13.8°
